Location: �mondeville
(49.4591°N, 1.3431°W)
Time: 01:57:51
(UTC+00:00)

IDEFIX/ARIANE 42P - Pass Details

Date: 22 October 2019
Orbit: 785 x 803 km, 98.3° (Epoch: 16 November)

Event Time Altitude Azimuth Distance (km) Brightness Sun altitude
Rises 03:03:51 0° 22° (NNE) 3,315 6.4 -34.5°
Reaches altitude 10° 03:06:28 10° 32° (NNE) 2,377 5.6 -34.2°
Maximum altitude 03:11:05 31° 94° (E) 1,374 4.2 -33.5°
Enters shadow 03:12:28 27° 122° (ESE) 1,490 4.2 -33.3°
